| time (UTC) | temp F | wind direction | speed MPH | gust MPH | rain 1hr in | rain 24hr in | rain mn in | humidity % | barometer mb |
| 20260505040532 | 55 | 0.0 | 0.0 | 0.01 | 0.04 | 0.04 | 93 | 1010.5 | |
| 20260505035533 | 55 | 248 | 0.0 | 1.0 | 0.01 | 0.04 | 0.04 | 92 | 1010.7 |
| 20260505033534 | 55 | 271 | 0.0 | 2.0 | 0.02 | 0.04 | 0.04 | 91 | 1010.8 |
| 20260505031535 | 55 | 22 | 1.0 | 3.0 | 0.01 | 0.03 | 0.03 | 91 | 1011.2 |
| 20260505024536 | 54 | 355 | 1.0 | 3.0 | 0.03 | 0.03 | 0.03 | 96 | 1011.6 |
| 20260505022536 | 55 | 270 | 0.0 | 1.0 | 0.02 | 0.02 | 0.02 | 95 | 1012.1 |
| 20260505020537 | 56 | 248 | 1.0 | 1.0 | 0.02 | 0.02 | 0.02 | 92 | 1012.3 |
| 20260505015538 | 56 | 233 | 1.0 | 2.0 | 0.00 | 0.00 | 0.00 | 89 | 1012.4 |
| 20260505012539 | 56 | 254 | 0.0 | 1.0 | 0.00 | 0.00 | 0.00 | 88 | 1012.3 |
| 20260505010540 | 57 | 267 | 0.0 | 1.0 | 0.00 | 0.00 | 0.00 | 82 | 1012.4 |
| 20260505004541 | 58 | 0.0 | 0.0 | 0.00 | 0.00 | 0.00 | 80 | 1012.4 | |
| 20260504235543 | 59 | 268 | 0.0 | 1.0 | 0.00 | 0.00 | 0.00 | 75 | 1012.4 |
| 20260504231544 | 59 | 279 | 0.0 | 1.0 | 0.00 | 0.00 | 0.00 | 75 | 1012.8 |
| 20260504230545 | 59 | 271 | 0.0 | 2.0 | 0.00 | 0.00 | 0.00 | 75 | 1013.0 |
| 20260504225546 | 59 | 277 | 0.0 | 1.0 | 0.00 | 0.00 | 0.00 | 75 | 1013.0 |
| 20260504220547 | 60 | 274 | 0.0 | 2.0 | 0.00 | 0.00 | 0.00 | 74 | 1013.2 |
| 20260504205550 | 62 | 279 | 0.0 | 2.0 | 0.00 | 0.00 | 0.00 | 70 | 1013.4 |
| 20260504204551 | 62 | 281 | 0.0 | 2.0 | 0.00 | 0.00 | 0.00 | 69 | 1013.4 |
| 20260504203551 | 62 | 284 | 0.0 | 2.0 | 0.00 | 0.00 | 0.00 | 69 | 1013.4 |
| 20260504195553 | 63 | 279 | 1.0 | 2.0 | 0.00 | 0.00 | 0.00 | 66 | 1013.4 |
| 20260504194553 | 63 | 287 | 0.0 | 2.0 | 0.00 | 0.00 | 0.00 | 65 | 1013.4 |
| 20260504185556 | 65 | 279 | 1.0 | 2.0 | 0.00 | 0.00 | 0.00 | 61 | 1013.3 |
| 20260504184556 | 66 | 283 | 1.0 | 3.0 | 0.00 | 0.00 | 0.00 | 59 | 1013.4 |
| 20260504183556 | 66 | 284 | 1.0 | 5.0 | 0.00 | 0.00 | 0.00 | 57 | 1013.3 |
| 20260504181557 | 67 | 279 | 0.0 | 2.0 | 0.00 | 0.00 | 0.00 | 54 | 1013.0 |
| 20260504180557 | 68 | 269 | 0.0 | 1.0 | 0.00 | 0.00 | 0.00 | 54 | 1013.0 |
| 20260504175558 | 68 | 280 | 0.0 | 1.0 | 0.00 | 0.00 | 0.00 | 53 | 1013.0 |
| 20260504173558 | 68 | 269 | 1.0 | 3.0 | 0.00 | 0.00 | 0.00 | 53 | 1013.1 |
| 20260504172559 | 69 | 275 | 1.0 | 5.0 | 0.00 | 0.00 | 0.00 | 52 | 1013.0 |
| 20260504170600 | 69 | 280 | 2.0 | 3.0 | 0.00 | 0.00 | 0.00 | 50 | 1012.7 |
| 20260504100533 | 69 | 218 | 2.0 | 5.0 | 0.00 | 0.00 | 0.00 | 46 | 1015.5 |
| 20260504050545 | 55 | 0.0 | 0.0 | 0.00 | 0.00 | 0.00 | 78 | 1015.6 | |
| 20260504042532 | 55 | 0.0 | 0.0 | 0.00 | 0.00 | 0.00 | 77 | 1015.4 |